Terminal Aerodrome Forecast
Issued by NWS

Home | Current Version | Previous Version | Text Only | Print | Product List | Glossary On
Versions: 1 2 3 4 5 6 7 8 9 10 11 12 13 14 15 16 17 18
000
FTUS45 KTFX 020900 AAA
TAFCTB
TAF AMD
KCTB 020909Z 0209/0306 36016G26KT 5SM -SN BR FEW008 SCT015 BKN020
      TEMPO 0209/0211 1SM -SN BR BKN006
     FM021100 36017G27KT 5SM -SN BR SCT008 BKN015
      TEMPO 0211/0214 1SM -SN BR BKN008
     FM021600 01015KT P6SM VCSH SCT025 BKN040
     FM021800 35010KT P6SM SCT060 BKN120
     FM030000 23005KT P6SM FEW120=

USA.gov is the U.S. government's official web portal to all federal, state and local government web resources and services.